MSR59M HESH-HECA

Flight info

Callsign MSR59M
Flight time 0h 39m
Altitude 28000
Route SHM L677 CVO
Aircraft B738/M-SDE2E3FGHIRWXY/LB1

Departure

Time 2026-05-05 18:47
Airport Sharm El Sheikh International Airport (HESH)

Arrival

Time 2026-05-05 19:26
Airport Cairo International Airport (HECA)
Time Latitude Longitude Altitude Speed Heading
2026-05-05 18:23 27.98130 34.39052 171 ft 0 kts 135°
2026-05-05 18:34 27.98131 34.39052 171 ft 1 kts 135°
2026-05-05 18:35 27.98143 34.39038 171 ft 4 kts 139°
2026-05-05 18:35 27.98177 34.39032 171 ft 4 kts 204°
2026-05-05 18:35 27.98173 34.39025 171 ft 4 kts 223°
2026-05-05 18:35 27.98140 34.38991 171 ft 12 kts 223°
2026-05-05 18:36 27.98054 34.38899 171 ft 19 kts 224°
2026-05-05 18:36 27.97949 34.38892 171 ft 18 kts 133°
2026-05-05 18:36 27.97858 34.38979 171 ft 17 kts 181°
2026-05-05 18:36 27.97762 34.38904 171 ft 17 kts 224°
2026-05-05 18:37 27.97659 34.38794 171 ft 27 kts 223°
2026-05-05 18:37 27.97501 34.38631 171 ft 31 kts 223°
2026-05-05 18:37 27.97349 34.38471 171 ft 29 kts 222°
2026-05-05 18:37 27.97203 34.38320 171 ft 28 kts 222°
2026-05-05 18:38 27.97061 34.38173 171 ft 33 kts 223°
2026-05-05 18:38 27.96938 34.38045 173 ft 36 kts 223°
2026-05-05 18:38 27.96858 34.37961 173 ft 0 kts 222°
2026-05-05 18:38 27.96860 34.37963 173 ft 1 kts 222°
2026-05-05 18:39 27.96877 34.37981 173 ft 5 kts 222°
2026-05-05 18:39 27.96914 34.38018 173 ft 9 kts 221°
2026-05-05 18:39 27.96970 34.38075 173 ft 12 kts 221°
2026-05-05 18:39 27.97034 34.38141 173 ft 0 kts 220°
2026-05-05 18:40 27.96974 34.38140 172 ft 16 kts 145°
2026-05-05 18:40 27.96899 34.38229 172 ft 15 kts 133°
2026-05-05 18:40 27.96803 34.38328 173 ft 25 kts 137°
2026-05-05 18:40 27.96673 34.38500 173 ft 29 kts 131°
2026-05-05 18:41 27.96615 34.38630 173 ft 14 kts 56°
2026-05-05 18:41 27.96638 34.38655 173 ft 0 kts 41°
2026-05-05 18:46 27.96687 34.38705 173 ft 41 kts 41°
2026-05-05 18:46 27.97109 34.39146 173 ft 121 kts 43°
2026-05-05 18:47 27.97888 34.39930 384 ft 163 kts 39°
2026-05-05 18:47 27.98706 34.40706 1432 ft 149 kts 40°
2026-05-05 18:47 27.99636 34.41376 2036 ft 175 kts 10°
2026-05-05 18:47 28.00944 34.41593 2387 ft 208 kts 20°
2026-05-05 18:48 28.02294 34.42407 2641 ft 233 kts 25°
2026-05-05 18:48 28.03915 34.42622 3066 ft 244 kts 345°
2026-05-05 18:48 28.05366 34.41642 3707 ft 246 kts 317°
2026-05-05 18:48 28.06659 34.40298 4103 ft 264 kts 316°
2026-05-05 18:49 28.08030 34.38854 4762 ft 274 kts 316°
2026-05-05 18:49 28.09434 34.37379 5688 ft 276 kts 316°
2026-05-05 18:49 28.10851 34.35901 6585 ft 279 kts 317°
2026-05-05 18:49 28.12301 34.34411 7397 ft 283 kts 317°
2026-05-05 18:50 28.13779 34.32912 8192 ft 287 kts 317°
2026-05-05 18:50 28.15286 34.31397 8972 ft 291 kts 318°
2026-05-05 18:50 28.16814 34.29871 9729 ft 295 kts 318°
2026-05-05 18:50 28.18372 34.28320 10399 ft 303 kts 318°
2026-05-05 18:51 28.20022 34.26682 10588 ft 326 kts 318°
2026-05-05 18:51 28.21780 34.24938 10760 ft 347 kts 318°
2026-05-05 18:51 28.23652 34.23083 10912 ft 365 kts 318°
2026-05-05 18:51 28.25577 34.21177 11253 ft 376 kts 318°
2026-05-05 18:52 28.27560 34.19214 11771 ft 379 kts 318°
2026-05-05 18:52 28.29548 34.17244 11984 ft 379 kts 318°
2026-05-05 18:52 28.31531 34.15277 11995 ft 379 kts 318°
2026-05-05 18:52 28.33524 34.13300 11996 ft 380 kts 318°
2026-05-05 18:53 28.35510 34.11329 12001 ft 380 kts 318°
2026-05-05 18:53 28.37502 34.09350 12004 ft 380 kts 318°
2026-05-05 18:53 28.39075 34.07779 12003 ft 380 kts 317°
2026-05-05 18:53 28.40846 34.05562 12001 ft 379 kts 306°
2026-05-05 18:54 28.42223 34.02982 12345 ft 384 kts 296°
2026-05-05 18:54 28.43376 34.00234 12935 ft 384 kts 295°
2026-05-05 18:54 28.44509 33.97482 13508 ft 385 kts 295°
2026-05-05 18:54 28.45260 33.95654 13846 ft 386 kts 295°
2026-05-05 18:55 28.46406 33.92877 14313 ft 389 kts 295°
2026-05-05 18:55 28.47566 33.90082 14771 ft 392 kts 295°
2026-05-05 18:55 28.48733 33.87280 15220 ft 394 kts 295°
2026-05-05 18:55 28.49912 33.84458 15663 ft 396 kts 295°
2026-05-05 18:56 28.51096 33.81625 16069 ft 398 kts 295°
2026-05-05 18:56 28.52292 33.78765 16497 ft 400 kts 295°
2026-05-05 18:56 28.53491 33.75896 16907 ft 401 kts 295°
2026-05-05 18:56 28.54694 33.73016 17247 ft 404 kts 295°
2026-05-05 18:57 28.55901 33.70122 17624 ft 405 kts 295°
2026-05-05 18:57 28.57109 33.67225 18009 ft 406 kts 295°
2026-05-05 18:57 28.58306 33.64351 18375 ft 407 kts 295°
2026-05-05 18:57 28.59519 33.61436 18718 ft 409 kts 295°
2026-05-05 18:58 28.60740 33.58502 19056 ft 410 kts 295°
2026-05-05 18:58 28.61963 33.55562 19384 ft 411 kts 295°
2026-05-05 18:58 28.63311 33.52686 19675 ft 413 kts 303°
2026-05-05 18:58 28.65047 33.50060 19979 ft 415 kts 308°
2026-05-05 18:59 28.66874 33.47514 20275 ft 416 kts 309°
2026-05-05 18:59 28.68721 33.44970 20543 ft 418 kts 309°
2026-05-05 18:59 28.70576 33.42408 20823 ft 419 kts 309°
2026-05-05 18:59 28.72425 33.39838 21088 ft 420 kts 309°
2026-05-05 19:00 28.74275 33.37248 21333 ft 421 kts 308°
2026-05-05 19:00 28.76118 33.34655 21581 ft 422 kts 308°
2026-05-05 19:00 28.77343 33.32926 21659 ft 425 kts 308°
2026-05-05 19:01 28.78642 33.31090 21843 ft 425 kts 308°
2026-05-05 19:01 28.80472 33.28500 22120 ft 425 kts 308°
2026-05-05 19:01 28.82349 33.25840 22370 ft 425 kts 308°
2026-05-05 19:01 28.84184 33.23238 22604 ft 426 kts 308°
2026-05-05 19:02 28.86042 33.20602 22795 ft 427 kts 308°
2026-05-05 19:02 28.87908 33.17953 22969 ft 429 kts 308°
2026-05-05 19:02 28.89791 33.15279 23003 ft 434 kts 308°
2026-05-05 19:02 28.91674 33.12602 23353 ft 430 kts 308°
2026-05-05 19:03 28.93547 33.09939 23648 ft 429 kts 308°
2026-05-05 19:03 28.95417 33.07279 23834 ft 430 kts 308°
2026-05-05 19:03 28.97298 33.04600 23896 ft 433 kts 308°
2026-05-05 19:03 28.99180 33.01919 23832 ft 432 kts 308°
2026-05-05 19:04 29.01057 32.99243 23573 ft 430 kts 308°
2026-05-05 19:04 29.02914 32.96593 23327 ft 426 kts 308°
2026-05-05 19:04 29.04738 32.93989 23098 ft 424 kts 308°
2026-05-05 19:04 29.06578 32.91361 23030 ft 424 kts 308°
2026-05-05 19:05 29.08413 32.88739 23004 ft 421 kts 308°
2026-05-05 19:05 29.10234 32.86134 22996 ft 418 kts 308°
2026-05-05 19:05 29.12050 32.83534 23005 ft 419 kts 308°
2026-05-05 19:05 29.13876 32.80920 23014 ft 423 kts 308°
2026-05-05 19:06 29.15707 32.78295 23000 ft 420 kts 308°
2026-05-05 19:06 29.17531 32.75681 23001 ft 421 kts 308°
2026-05-05 19:06 29.19366 32.73047 23011 ft 426 kts 308°
2026-05-05 19:06 29.21217 32.70389 22950 ft 427 kts 308°
2026-05-05 19:07 29.23059 32.67742 22836 ft 422 kts 308°
2026-05-05 19:07 29.24888 32.65113 22723 ft 420 kts 308°
2026-05-05 19:07 29.26684 32.62529 22602 ft 421 kts 308°
2026-05-05 19:07 29.28507 32.59905 22477 ft 420 kts 308°
2026-05-05 19:08 29.30317 32.57284 22351 ft 419 kts 308°
2026-05-05 19:08 29.32119 32.54661 22226 ft 418 kts 308°
2026-05-05 19:08 29.33905 32.52054 22064 ft 415 kts 308°
2026-05-05 19:08 29.35680 32.49463 21798 ft 410 kts 308°
2026-05-05 19:09 29.37432 32.46903 21695 ft 405 kts 308°
2026-05-05 19:09 29.39168 32.44366 21706 ft 406 kts 308°
2026-05-05 19:09 29.40924 32.41800 21714 ft 410 kts 308°
2026-05-05 19:09 29.42690 32.39217 21716 ft 413 kts 308°
2026-05-05 19:10 29.44466 32.36619 21717 ft 414 kts 308°
2026-05-05 19:10 29.46243 32.34017 21717 ft 415 kts 308°
2026-05-05 19:10 29.48023 32.31410 21709 ft 414 kts 308°
2026-05-05 19:10 29.49791 32.28819 21178 ft 412 kts 308°
2026-05-05 19:11 29.51551 32.26239 20697 ft 407 kts 308°
2026-05-05 19:11 29.53289 32.23688 20203 ft 403 kts 308°
2026-05-05 19:11 29.55011 32.21160 19712 ft 399 kts 307°
2026-05-05 19:11 29.56690 32.18692 19232 ft 395 kts 307°
2026-05-05 19:12 29.58374 32.16217 18750 ft 391 kts 307°
2026-05-05 19:12 29.60040 32.13765 18272 ft 388 kts 307°
2026-05-05 19:12 29.61692 32.11333 17797 ft 384 kts 307°
2026-05-05 19:12 29.63334 32.08916 17324 ft 381 kts 307°
2026-05-05 19:13 29.64958 32.06522 16856 ft 378 kts 307°
2026-05-05 19:13 29.66568 32.04147 16391 ft 374 kts 307°
2026-05-05 19:13 29.68162 32.01794 15930 ft 371 kts 307°
2026-05-05 19:13 29.69741 31.99463 15473 ft 368 kts 307°
2026-05-05 19:14 29.71308 31.97148 15019 ft 365 kts 307°
2026-05-05 19:14 29.72866 31.94845 14566 ft 362 kts 307°
2026-05-05 19:14 29.74407 31.92567 14117 ft 360 kts 307°
2026-05-05 19:14 29.75937 31.90302 13672 ft 357 kts 307°
2026-05-05 19:15 29.77190 31.87930 13330 ft 341 kts 292°
2026-05-05 19:15 29.78048 31.85450 13055 ft 326 kts 291°
2026-05-05 19:15 29.78856 31.83065 12744 ft 314 kts 291°
2026-05-05 19:15 29.79628 31.80792 12428 ft 304 kts 291°
2026-05-05 19:16 29.80389 31.78563 12085 ft 296 kts 291°
2026-05-05 19:16 29.81141 31.76369 11629 ft 292 kts 291°
2026-05-05 19:16 29.81890 31.74194 11129 ft 291 kts 291°
2026-05-05 19:16 29.82634 31.72035 10651 ft 289 kts 291°
2026-05-05 19:17 29.83373 31.69896 10187 ft 286 kts 291°
2026-05-05 19:17 29.84106 31.67772 9722 ft 284 kts 291°
2026-05-05 19:17 29.84834 31.65667 9259 ft 282 kts 291°
2026-05-05 19:17 29.85556 31.63576 8800 ft 279 kts 291°
2026-05-05 19:18 29.86273 31.61498 8344 ft 277 kts 291°
2026-05-05 19:18 29.86980 31.59449 7897 ft 275 kts 291°
2026-05-05 19:18 29.87685 31.57407 7448 ft 273 kts 291°
2026-05-05 19:18 29.88383 31.55381 7000 ft 271 kts 291°
2026-05-05 19:19 29.89076 31.53371 6560 ft 269 kts 291°
2026-05-05 19:19 29.89755 31.51399 6130 ft 267 kts 291°
2026-05-05 19:19 29.90435 31.49424 5757 ft 262 kts 291°
2026-05-05 19:19 29.91100 31.47490 5455 ft 255 kts 291°
2026-05-05 19:20 29.91747 31.45607 5116 ft 251 kts 291°
2026-05-05 19:20 29.92381 31.43763 4823 ft 245 kts 291°
2026-05-05 19:20 29.92998 31.41967 4697 ft 238 kts 291°
2026-05-05 19:20 29.93498 31.40509 4601 ft 237 kts 291°
2026-05-05 19:21 29.94118 31.38703 4507 ft 240 kts 291°
2026-05-05 19:21 29.94737 31.36896 4402 ft 243 kts 291°
2026-05-05 19:21 29.95361 31.35076 4291 ft 243 kts 291°
2026-05-05 19:21 29.95983 31.33260 4046 ft 243 kts 291°
2026-05-05 19:22 29.96603 31.31449 3796 ft 242 kts 291°
2026-05-05 19:22 29.97268 31.29696 3534 ft 241 kts 302°
2026-05-05 19:22 29.98547 31.28507 3284 ft 240 kts 343°
2026-05-05 19:22 30.00171 31.28553 3063 ft 236 kts 23°
2026-05-05 19:23 30.01378 31.29756 2876 ft 232 kts 63°
2026-05-05 19:23 30.01959 31.31476 2671 ft 227 kts 64°
2026-05-05 19:23 30.02958 31.32821 2420 ft 219 kts 39°
2026-05-05 19:23 30.03996 31.34073 2103 ft 215 kts 58°
2026-05-05 19:24 30.04833 31.35472 1838 ft 210 kts 46°
2026-05-05 19:24 30.05829 31.36659 1581 ft 204 kts 50°
2026-05-05 19:24 30.06718 31.37906 1313 ft 197 kts 49°
2026-05-05 19:24 30.07601 31.39065 1008 ft 189 kts 49°
2026-05-05 19:25 30.08428 31.40161 744 ft 177 kts 50°
2026-05-05 19:25 30.09191 31.41187 534 ft 159 kts 49°
2026-05-05 19:25 30.09881 31.42111 392 ft 139 kts 49°
2026-05-05 19:25 30.10428 31.42847 371 ft 96 kts 49°
2026-05-05 19:26 30.10740 31.43259 373 ft 51 kts 47°
2026-05-05 19:26 30.10996 31.43508 373 ft 43 kts 27°
2026-05-05 19:26 30.11181 31.43599 373 ft 20 kts
2026-05-05 19:26 30.11245 31.43485 373 ft 19 kts 253°
2026-05-05 19:27 30.11303 31.43359 373 ft 19 kts 321°
2026-05-05 19:27 30.11400 31.43261 373 ft 18 kts 318°
2026-05-05 19:27 30.11499 31.43161 373 ft 20 kts 317°
2026-05-05 19:27 30.11622 31.43048 373 ft 25 kts 317°
2026-05-05 19:28 30.11751 31.42917 373 ft 24 kts 319°
2026-05-05 19:28 30.11876 31.42793 373 ft 23 kts 319°
2026-05-05 19:28 30.11995 31.42675 373 ft 22 kts 319°
2026-05-05 19:28 30.12117 31.42552 373 ft 23 kts 320°
2026-05-05 19:29 30.12198 31.42444 373 ft 16 kts 279°
2026-05-05 19:29 30.12151 31.42335 373 ft 15 kts 228°
2026-05-05 19:29 30.12084 31.42243 373 ft 15 kts 228°
2026-05-05 19:29 30.12009 31.42143 374 ft 20 kts 229°
2026-05-05 19:30 30.11912 31.42013 373 ft 21 kts 230°
2026-05-05 19:30 30.11814 31.41885 374 ft 21 kts 229°
2026-05-05 19:30 30.11715 31.41753 373 ft 23 kts 229°
2026-05-05 19:30 30.11606 31.41608 373 ft 24 kts 229°
2026-05-05 19:31 30.11501 31.41468 374 ft 23 kts 229°
2026-05-05 19:31 30.11399 31.41332 373 ft 22 kts 229°
2026-05-05 19:31 30.11301 31.41202 373 ft 21 kts 229°
2026-05-05 19:31 30.11205 31.41074 373 ft 21 kts 229°
2026-05-05 19:32 30.11111 31.40950 373 ft 20 kts 229°
2026-05-05 19:32 30.11077 31.40811 373 ft 20 kts 288°
2026-05-05 19:32 30.11025 31.40675 373 ft 19 kts 228°
2026-05-05 19:32 30.10938 31.40560 373 ft 19 kts 229°
2026-05-05 19:33 30.10851 31.40446 373 ft 20 kts 229°
2026-05-05 19:33 30.10756 31.40320 373 ft 21 kts 229°
2026-05-05 19:33 30.10663 31.40196 373 ft 20 kts 229°
2026-05-05 19:33 30.10566 31.40068 373 ft 23 kts 228°
2026-05-05 19:34 30.10486 31.39926 373 ft 20 kts 273°
2026-05-05 19:34 30.10593 31.39841 373 ft 20 kts 345°
2026-05-05 19:34 30.10725 31.39800 373 ft 19 kts 345°
2026-05-05 19:35 30.10895 31.39748 373 ft 0 kts 345°
2026-05-05 19:35 30.10943 31.39733 373 ft 12 kts 346°
2026-05-05 19:35 30.10972 31.39766 373 ft 6 kts 89°
2026-05-05 19:35 30.10981 31.39807 373 ft 6 kts 76°
2026-05-05 19:36 30.10982 31.39812 373 ft 0 kts 77°